Regional Weather Roundup
Issued by NWS

Home | Current Version | Previous Version | Text Only | Print | Product List | Glossary On
Versions: 1 2 3 4 5 6 7 8 9 10 11 12 13 14 15 16 17 18 19 20 21 22 23 24 25 26 27 28 29 30 31 32 33 34 35 36 37 38 39 40 41 42 43 44 45 46 47 48 49 50
000
ASUS44 KMEG 202110
RWRTN
TENNESSEE HOURLY STATE WEATHER ROUNDUP
NATIONAL WEATHER SERVICE MEMPHIS TN
300 PM CST FRI JAN 20 2017

TNZ002-004-019-021-049-052-054-088>092-202200-
WEST TENNESSEE

CITY           SKY/WX    TMP DP  RH WIND       PRES   REMARKS
MEMPHIS INTL   MOSUNNY   68  56  65 S17G26    29.67R
NWS MEMPHIS      N/A     67 N/A N/A MISG        N/A
JACKSON        PTSUNNY   65  55  70 S13G18    29.68R
DYERSBURG      PTSUNNY   63  54  72 S8G16     29.65F
UNION CITY     PTSUNNY   61  61 100 S9        29.65S
PARIS          MOSUNNY   61  54  77 S12       29.67F
HUNTINGDON     CLOUDY    63  55  77 S8        29.67F
$$

TNZ008-025-027-028-033-062-065-066-202200-
NORTH MIDDLE TENNESSEE

CITY           SKY/WX    TMP DP  RH WIND       PRES   REMARKS
NASHVILLE      PTSUNNY   67  51  56 S14G23    29.73R
PORTLAND       PTSUNNY   64  54  68 SW13      29.72S
CLARKSVILLE    PTSUNNY   64  53  67 S10       29.70R
SMYRNA         MOSUNNY   69  53  56 SW9       29.74S
GALLATIN       PTSUNNY   68  54  60 S8G15     29.75S
CROSSVILLE     CLOUDY    62  47  57 VRB6      29.80R
$$

TNZ061-075-076-078-094-096-097-202200-
SOUTH MIDDLE TENNESSEE

CITY           SKY/WX    TMP DP  RH WIND       PRES   REMARKS
TULLAHOMA      PTSUNNY   64  52  63 S12       29.77S
WINCHESTER     PTSUNNY   68  52  56 S10       29.77S
MCMINNVILLE    MOSUNNY   68  52  56 SW14      29.75F
COLUMBIA       PTSUNNY   68  61  77 S9        29.72R
SHELBYVILLE    SUNNY     70  55  60 S12       29.75F
$$

TNZ017-018-042-046-047-202200-
NORTHEAST TENNESSEE

CITY           SKY/WX    TMP DP  RH WIND       PRES   REMARKS
TRI CITIES     CLOUDY    65  51  60 SW12      29.80S
ELIZABETHTON   CLOUDY    64  54  68 W8        29.80S
$$

TNZ012-013-036-069-073-074-202200-
CENTRAL EAST TENNESSEE

CITY           SKY/WX    TMP DP  RH WIND       PRES   REMARKS
KNOXVILLE      PTSUNNY   68  50  52 SW17      29.78R
OAK RIDGE      SUNNY     68  51  54 VRB6      29.79R
GATLINBURG     SUNNY     68  48  49 W12       29.78S
MORRISTOWN     MOSUNNY   66  52  59 SW14      29.78S
JACKSBORO      PTSUNNY   66  48  52 SW7G14    29.80S
$$

TNZ083-085-099-202200-
SOUTHEAST TENNESSEE

CITY           SKY/WX    TMP DP  RH WIND       PRES   REMARKS
CHATTANOOGA    PTSUNNY   71  49  45 SW15      29.78S
$$

SKY/WX REPORTED AS FAIR MEANS FEW OR NO CLOUDS BELOW
12 THOUSAND FEET.





USA.gov is the U.S. government's official web portal to all federal, state and local government web resources and services.